SL-12 R/B(AUX MOTOR), 37143

Orbit data source: Space-Track

SL-12 R/B(AUX MOTOR), 37143 is space debris originally from a launch on Thu, 02 Sep 2010 UTC launched from the Tyuratam Missile And Space Complex (TTMTR). Debris objects in space refer to the collection of defunct objects orbiting the Earth. Examples of debris include non-operational satellites, rocket bodies, and fragments generated from explosions, collisions, or faulty payload assembly.

Loading next visibility...
Identifier
37143, 2010-041G
Orbit
Active
Country
Flag of CISCIS
Related business
Manufacturer
RKKE
Mission
Spacecraft
Bus & Motor
SOZ, Unknown motor
Mass
56 kg wet, 56 kg dry
Launch date (UTC)
2010-09-02 (15 years ago)
Launch vehicle
Unknown
Launch site
Tyuratam Missile And Space Complex (TTMTR)
Object type
Payload
Rocket body
Debris
Shape & HBR
Cyl, 0.6 m
Radar Cross Section
0.660 m², Medium (>0.1 m² and < 1m²)

Expand to show TLE details & history
Last TLE update: 8 hours ago

TLE from 8 hours ago
0 SL-12 R/B(AUX MOTOR)
1 37143U 10041G   26035.13126093  .00124539  00000-0  60219-2 0  9999
2 37143  64.4454 324.3923 3336535 288.1072  38.8237  8.70216002270353
Epoch: 2026-02-04T03:09Z
TLE epoch observation values (Epoch: 2026-02-04T03:09:00.944Z)
Latitude
-0.00001°
Longitude
142.83612°
Altitude
1,666.847 km
Speed
7.694 km/s
True Right ascension
21h 37m 34s
True Declination
0° 00' 00"
Sunlit
Object was in daylight at epoch
Visualization orbit readout
Latitude
Unknown
Longitude
Unknown
Altitude
Unknown
Speed
Unknown
Apparent Right ascension
Unknown
Apparent Declination
Unknown
Sunlit
N/A
Visualization observer readout
Local Sidereal Time
12:44:10
Azimuth
Unknown
Elevation
Unknown
Doppler factor
Unknown
Orbital elements
Apogee altitude
6,935.902 km
Perigee altitude
274.088 km
Semi-major axis
9,983.132 km
Eccentricity
0.33365
Inclination
64.4454°
RAAN
324.3923°
Arg. of periapsis
288.1072°
True anomaly
71.99256°
Mean anomaly
38.8237°
Eccentric anomaly
54.3599°
Mean motion
2.17592 °/min
Orbital period
165.45 mins
BSTAR
0.0060219
Loading maneuver chart data...
Computing Atmospheric mass density...
Loading historical data...
Loading historical data...
Loading historical data...
Loading historical data...
Loading historical data...
Loading historical data...
Loading historical data...

Documentation

Showing up to 5 results
|